Weather Roundup
Issued by NWS Corpus Christi, TX

Home | Current Version | Previous Version | Text Only | Print | Product List | Glossary On
Versions: 1 2 3 4 5 6 7 8 9 10 11 12 13 14 15 16 17 18 19 20 21 22 23 24 25 26 27 28 29 30 31 32 33 34 35 36 37 38 39 40 41 42 43 44 45 46 47 48 49 50
000
ASUS44 KCRP 250210
HRRCRP

SOUTH TEXAS REGIONAL WEATHER ROUNDUP
NATIONAL WEATHER SERVICE CORPUS CHRISTI TX
900 PM CDT TUE MAY 24 2016


TXZ229>244-250300-
...CORPUS CHRISTI AREA OBSERVATIONS...

CITY           SKY/WX    TMP DP  RH WIND       PRES   REMARKS
CORPUS CHRISTI MOCLDY    81  77  88 SE13      29.92R
NAS CORPUS CHR MOCLDY    82  80  94 SE16G25   29.92R HX  94
ROCKPORT       CLOUDY    81  76  84 SE15G21   29.93R
KINGSVILLE NAS CLOUDY    81  80  97 SE12      29.91R HX  91
ALICE          CLOUDY    80  75  84 SE10G18   29.91R
FALFURRIAS     MOCLDY    83  75  78 SE10      29.89R HX  90
$$

...VICTORIA AREA OBSERVATIONS...

CITY           SKY/WX    TMP DP  RH WIND       PRES   REMARKS
VICTORIA       CLOUDY    79  75  87 SE8       29.95R
BEEVILLE       FAIR      80  77  90 SE8       29.93R
PLEASANTON     CLOUDY    81  73  76 E7        29.93R
SAN ANTONIO    CLOUDY    80  73  79 SE13      29.94R
$$

...LAREDO AREA OBSERVATIONS...

CITY           SKY/WX    TMP DP  RH WIND       PRES   REMARKS
LAREDO         CLOUDY    88  76  67 E14       29.87R HX  99
COTULLA        PTCLDY    85  76  74 SE14      29.89R HX  94
DEL RIO        CLOUDY    82  75  79 E10       29.88R
MCALLEN        CLEAR     86  74  67 SE15      29.90R HX  94
HEBBRONVILLE   MOCLDY    84  75  74 SE9       29.91R HX  93
$$

...OTHER TEXAS OBSERVATIONS...

CITY           SKY/WX    TMP DP  RH WIND       PRES   REMARKS
BROWNSVILLE    PTCLDY    81  78  91 SE10      29.92R
HOUSTON        PTCLDY    78  73  84 SE15      29.99R
COL. STATION   MOCLDY    81  73  76 S13       29.96R
AUSTIN         MOCLDY    80  73  79 S9        29.93R
WACO           CLOUDY    82  73  74 S12       29.91R
FORT WORTH     CLOUDY    83  71  67 S13       29.88R
WICHITA FALLS  MOCLDY    80  71  74 S14       29.85R
LUBBOCK        PTCLDY    82  25  12 SW12      29.88R
EL PASO        MOCLDY    86   4   4 W14       29.93R
$$

...MARINE OBSERVATIONS...

STATION/POSITION TIME  SKY/WX   TEMP    WIND        PRES    VSBY  WAVE   SWELL
                                AIR SEA DIR/SP/G                  HT/PER HT/PER
                 (UTC)          (F)     (DEG/KT/KT) (MB)    (MI)  (FT/S) (FT/S)
PORT ARANSAS     0200            81 81  120/ 14/ 15 1014.1R
BUOY 90 E PORT A 0150            81 81  120/ 16/ 17 1014.1R         5/ 6
BUOY 45 SE BAFFI 0150            81 81  140/ 16/ 17 1012.7R         4/ 6   2/ 9
BUOY 200 E PT IS 0150                                 N/A           4/ 5
BUOY 15 E GALVES 0150            80 80  120/ 12/ 16 1015.7R         4/ 6   2/ 6
$$



USA.gov is the U.S. government's official web portal to all federal, state and local government web resources and services.